GW2156 Weather Reports


Display with metric or nautical units.
time (UTC)temp
F
wind
direction
speed
MPH
gust
MPH
rain 1hr
in
rain 24hr
in
rain mn
in
humidity
%
barometer
mb
20260510213223 48 311 6.0 7.0 0.00 0.00 0.00 74 1018.2
20260510212223 48 310 7.0 9.0 0.00 0.00 0.00 77 1018.3
20260510211243 49 316 6.0 8.0 0.00 0.00 0.00 77 1018.4
20260510210243 49 349 5.0 8.0 0.00 0.00 0.00 72 1018.4
20260510205243 49 357 5.0 6.0 0.00 0.00 0.00 71 1018.4
20260510204223 49 354 5.0 7.0 0.00 0.00 0.00 70 1018.4
20260510203223 49 345 5.0 7.0 0.00 0.00 0.00 70 1018.4
20260510202223 48 20 5.0 8.0 0.00 0.00 0.00 66 1018.4
20260510201223 48 23 5.0 8.0 0.00 0.00 0.00 67 1018.3
20260510200223 48 18 4.0 6.0 0.00 0.00 0.00 70 1018.3
20260510195223 48 40 5.0 8.0 0.00 0.00 0.00 69 1018.3
20260510194224 48 47 6.0 10.0 0.00 0.00 0.00 69 1018.2
20260510193223 49 48 5.0 8.0 0.00 0.00 0.00 67 1018.2
20260510192223 49 47 7.0 10.0 0.00 0.00 0.00 65 1018.3
20260510191223 50 48 7.0 11.0 0.00 0.00 0.00 67 1018.3
20260510190303 50 53 7.0 11.0 0.00 0.00 0.00 67 1018.3
20260510185223 50 64 9.0 13.0 0.00 0.00 0.00 65 1018.4
20260510184223 51 58 11.0 14.0 0.00 0.00 0.00 60 1018.4
20260510183223 52 64 10.0 15.0 0.00 0.00 0.00 61 1018.5
20260510182223 52 63 10.0 15.0 0.00 0.00 0.00 60 1018.5
20260510181225 52 63 11.0 16.0 0.00 0.00 0.00 60 1018.4
20260510180222 52 70 12.0 18.0 0.00 0.00 0.00 60 1018.4
20260510175222 52 77 13.0 19.0 0.00 0.00 0.00 62 1018.4
20260510174222 53 76 14.0 20.0 0.00 0.00 0.00 62 1018.5
20260510173223 53 69 12.0 18.0 0.00 0.00 0.00 66 1018.6
20260510172222 53 69 13.0 19.0 0.00 0.00 0.00 64 1018.7
20260510171222 53 73 15.0 22.0 0.00 0.00 0.00 66 1018.7
20260510170222 53 75 16.0 24.0 0.00 0.00 0.00 66 1018.8
20260510165222 53 69 14.0 19.0 0.00 0.00 0.00 64 1018.9
20260510164222 53 74 16.0 22.0 0.00 0.00 0.00 64 1019.0
20260510163302 53 72 16.0 22.0 0.00 0.00 0.00 61 1019.0
20260510162222 53 72 17.0 23.0 0.00 0.00 0.00 57 1019.0
20260510161223 54 79 16.0 23.0 0.00 0.00 0.00 58 1019.0
20260510160222 55 73 13.0 20.0 0.00 0.00 0.00 51 1019.2
20260510155222 55 66 15.0 21.0 0.00 0.00 0.00 46 1019.5
20260510154221 55 54 13.0 19.0 0.00 0.00 0.00 43 1019.7
20260510153242 55 73 13.0 19.0 0.00 0.00 0.00 48 1019.8
20260510152221 55 55 14.0 19.0 0.00 0.00 0.00 44 1019.8
20260510151221 56 47 13.0 21.0 0.00 0.00 0.00 42 1019.8
20260510150222 55 62 16.0 21.0 0.00 0.00 0.00 45 1019.8
20260510145221 55 65 15.0 23.0 0.00 0.00 0.00 45 1019.9
20260510144221 55 56 15.0 20.0 0.00 0.00 0.00 43 1019.8
20260510143221 55 61 16.0 22.0 0.00 0.00 0.00 45 1019.8
20260510142242 55 60 15.0 23.0 0.00 0.00 0.00 46 1019.9
20260510141241 55 59 15.0 22.0 0.00 0.00 0.00 50 1020.1
20260510140221 55 58 13.0 19.0 0.00 0.00 0.00 53 1020.2
20260510135221 55 65 17.0 25.0 0.00 0.00 0.00 60 1020.1
20260510134221 55 45 14.0 20.0 0.00 0.00 0.00 56 1020.1
20260510133241 54 44 17.0 23.0 0.00 0.00 0.00 50 1020.2
20260510132221 55 47 15.0 23.0 0.00 0.00 0.00 55 1020.3
20260510131241 54 52 15.0 23.0 0.00 0.00 0.00 56 1020.5
20260510130221 54 60 16.0 24.0 0.00 0.00 0.00 58 1020.6
20260510125221 55 64 16.0 20.0 0.00 0.00 0.00 61 1020.7
20260510124221 54 66 16.0 23.0 0.00 0.00 0.00 68 1020.7
20260510123221 54 60 16.0 22.0 0.00 0.00 0.00 69 1020.8
20260510122241 54 57 18.0 24.0 0.00 0.00 0.00 69 1020.9
20260510121301 54 48 13.0 19.0 0.00 0.00 0.00 67 1021.1
20260510120221 54 43 14.0 22.0 0.00 0.00 0.00 66 1021.0
20260510115220 54 38 14.0 23.0 0.00 0.00 0.00 66 1021.2
20260510114221 54 53 14.0 23.0 0.00 0.00 0.00 66 1021.2
20260510113301 53 49 15.0 23.0 0.00 0.00 0.00 67 1021.2
20260510112241 53 43 17.0 26.0 0.00 0.00 0.00 66 1021.3
20260510111220 54 54 15.0 22.0 0.00 0.00 0.00 68 1021.4
20260510110241 53 52 17.0 26.0 0.00 0.00 0.00 68 1021.5
20260510105220 52 37 14.0 21.0 0.00 0.00 0.00 70 1021.6
20260510104220 52 41 13.0 21.0 0.00 0.00 0.00 76 1021.6
20260510103220 52 41 14.0 23.0 0.00 0.00 0.00 78 1021.6
20260510102220 52 49 15.0 23.0 0.00 0.00 0.00 78 1021.6
20260510101220 53 55 17.0 24.0 0.00 0.00 0.00 79 1021.7
20260510100220 51 55 15.0 23.0 0.00 0.00 0.00 81 1021.9
20260510095240 52 46 13.0 21.0 0.00 0.00 0.00 77 1021.9
20260510094220 51 43 16.0 26.0 0.00 0.00 0.00 76 1021.8
20260510093220 52 35 16.0 26.0 0.00 0.00 0.00 77 1021.9
20260510092240 52 57 18.0 26.0 0.00 0.00 0.00 78 1022.1
20260510091220 51 44 14.0 24.0 0.00 0.00 0.00 79 1022.2
20260510090220 50 56 16.0 22.0 0.00 0.00 0.00 83 1022.2
20260510085220 50 48 14.0 19.0 0.00 0.00 0.00 84 1022.2
20260510084220 50 43 15.0 22.0 0.00 0.00 0.00 83 1022.2
20260510083220 50 61 19.0 26.0 0.00 0.00 0.00 84 1022.2
20260510082300 50 61 17.0 28.0 0.00 0.00 0.00 85 1022.2
20260510081240 50 60 18.0 27.0 0.00 0.00 0.00 82 1022.0
20260510080220 51 65 16.0 25.0 0.00 0.00 0.00 82 1022.0
20260510075224 50 60 15.0 23.0 0.00 0.00 0.00 83 1022.1
20260510074223 50 47 16.0 24.0 0.00 0.00 0.00 82 1021.9
20260510073224 49 53 16.0 25.0 0.00 0.00 0.00 84 1021.9
20260510072224 50 51 16.0 28.0 0.00 0.00 0.00 87 1021.9
20260510071224 49 32 12.0 17.0 0.00 0.00 0.00 93 1021.8
20260510070224 48 32 12.0 17.0 0.00 0.00 0.00 96 1021.8
20260510065224 48 29 11.0 15.0 0.00 0.00 0.00 98 1021.6
20260510064243 47 24 11.0 17.0 0.00 0.00 0.00 100 1021.7
20260510063223 46 9 7.0 11.0 0.00 0.00 0.00 100 1021.7
20260510062243 46 351 7.0 9.0 0.00 0.00 0.00 100 1021.6
20260510061223 46 7 9.0 15.0 0.00 0.00 0.00 100 1021.6
20260510060244 45 338 8.0 10.0 0.00 0.00 0.00 100 1021.6
20260510055223 44 332 9.0 11.0 0.00 0.00 0.00 100 1021.5
20260510054223 44 336 8.0 10.0 0.00 0.00 0.00 100 1021.5
20260510053223 43 341 8.0 11.0 0.00 0.00 0.00 100 1021.5
20260510052306 43 343 9.0 11.0 0.00 0.00 0.00 100 1021.6
20260510051303 44 344 10.0 11.0 0.00 0.00 0.00 100 1021.6
20260510050303 44 344 9.0 11.0 0.00 0.00 0.00 100 1021.5
20260510045209 45 344 9.0 12.0 0.00 0.00 0.00 100 1021.5
20260510044209 45 347 8.0 11.0 0.00 0.00 0.00 100 1021.6
20260510043209 46 332 7.0 9.0 0.00 0.00 0.00 100 1021.7
20260510042209 45 328 8.0 10.0 0.00 0.00 0.00 100 1021.6
20260510041209 46 349 7.0 10.0 0.00 0.00 0.00 100 1021.6
20260510040209 46 349 8.0 10.0 0.00 0.00 0.00 100 1021.7
20260510035209 46 2 9.0 12.0 0.00 0.00 0.00 100 1021.7
20260510034228 46 10 9.0 13.0 0.00 0.00 0.00 100 1021.7
20260510033209 46 12 9.0 12.0 0.00 0.00 0.00 100 1021.9
20260510032249 45 344 8.0 10.0 0.00 0.00 0.00 100 1022.0
20260510031208 47 2 9.0 13.0 0.00 0.00 0.00 97 1022.0
20260510030209 47 10 10.0 19.0 0.00 0.00 0.00 96 1022.1
20260510025208 46 12 10.0 14.0 0.00 0.00 0.00 95 1022.2
20260510024229 46 10 10.0 14.0 0.00 0.00 0.00 93 1022.2
20260510023208 46 12 11.0 15.0 0.00 0.00 0.00 92 1022.2
20260510022208 46 14 12.0 17.0 0.00 0.00 0.00 90 1022.3
20260510021208 46 13 13.0 20.0 0.00 0.00 0.00 89 1022.3
20260510020208 46 14 10.0 14.0 0.00 0.00 0.00 89 1022.4
20260510015208 46 16 12.0 17.0 0.00 0.00 0.00 88 1022.4
20260510014228 46 15 10.0 14.0 0.00 0.00 0.00 88 1022.5
20260510013212 46 17 10.0 15.0 0.00 0.00 0.00 88 1022.4
20260510012232 46 15 9.0 13.0 0.00 0.00 0.00 87 1022.5
20260510011212 46 13 9.0 15.0 0.00 0.00 0.00 87 1022.5
20260510010212 46 13 8.0 11.0 0.00 0.00 0.00 87 1022.5
20260510005212 47 22 9.0 15.0 0.00 0.00 0.00 86 1022.3
20260510004212 47 18 9.0 14.0 0.00 0.00 0.00 86 1022.3
20260510003212 47 21 9.0 15.0 0.00 0.00 0.00 86 1022.3
20260510002232 47 16 12.0 18.0 0.00 0.00 0.00 86 1022.2
20260510001212 47 23 11.0 15.0 0.00 0.00 0.00 87 1022.2
20260510000212 47 21 11.0 16.0 0.00 0.00 0.00 87 1022.2
20260509235211 47 21 11.0 17.0 0.00 0.00 0.00 86 1022.3
20260509234211 47 24 10.0 14.0 0.00 0.00 0.00 87 1022.4
20260509233211 47 24 10.0 16.0 0.00 0.00 0.00 87 1022.4
20260509232211 47 20 10.0 16.0 0.00 0.00 0.00 88 1022.4
20260509231211 48 12 9.0 14.0 0.00 0.00 0.00 88 1022.4
20260509230231 48 15 9.0 14.0 0.00 0.00 0.00 87 1022.3
20260509225211 48 20 10.0 16.0 0.00 0.00 0.00 87 1022.3
20260509224211 48 15 10.0 16.0 0.00 0.00 0.00 88 1022.3
20260509223211 48 10 9.0 13.0 0.00 0.00 0.00 90 1022.3
20260509222211 48 10 10.0 15.0 0.00 0.00 0.00 90 1022.2
20260509221231 48 8 11.0 15.0 0.00 0.00 0.00 89 1022.3
20260509220331 48 9 12.0 16.0 0.00 0.00 0.00 89 1022.3
20260509215211 48 17 10.0 14.0 0.00 0.00 0.00 90 1022.4
20260509214211 48 18 9.0 13.0 0.00 0.00 0.00 92 1022.4